DEKPA EDDK-EDDK

Flight info

Callsign DEKPA
Flight time 0h 15m
Altitude 2500
Route
Aircraft C172

Departure

Time 2026-04-22 19:05
Airport Cologne Bonn Airport (EDDK)

Arrival

Time 2026-04-22 19:21
Airport Cologne Bonn Airport (EDDK)
Time Latitude Longitude Altitude Speed Heading
2026-04-22 19:05 51.00161 6.80487 2005 ft 88 kts 102°
2026-04-22 19:05 50.99971 6.81405 2008 ft 87 kts 102°
2026-04-22 19:06 50.99782 6.82320 2010 ft 87 kts 102°
2026-04-22 19:06 50.99590 6.83249 2014 ft 90 kts 102°
2026-04-22 19:06 50.99402 6.84176 2018 ft 88 kts 102°
2026-04-22 19:07 50.99034 6.86017 2015 ft 86 kts 102°
2026-04-22 19:07 50.98858 6.86897 2010 ft 84 kts 102°
2026-04-22 19:07 50.98720 6.87801 2009 ft 85 kts 95°
2026-04-22 19:07 50.98621 6.88730 2023 ft 88 kts 95°
2026-04-22 19:08 50.98475 6.89695 1996 ft 96 kts 114°
2026-04-22 19:08 50.97909 6.90368 1960 ft 106 kts 146°
2026-04-22 19:08 50.97260 6.90883 1982 ft 104 kts 145°
2026-04-22 19:08 50.96634 6.91448 1982 ft 102 kts 142°
2026-04-22 19:09 50.96029 6.92021 1982 ft 102 kts 141°
2026-04-22 19:09 50.95424 6.92598 1991 ft 101 kts 141°
2026-04-22 19:09 50.94821 6.93162 2000 ft 100 kts 141°
2026-04-22 19:09 50.94210 6.93744 1944 ft 103 kts 143°
2026-04-22 19:10 50.93563 6.94289 1872 ft 106 kts 145°
2026-04-22 19:10 50.92941 6.94826 1902 ft 99 kts 141°
2026-04-22 19:10 50.92382 6.95377 1950 ft 93 kts 138°
2026-04-22 19:10 50.91847 6.95936 1970 ft 90 kts 136°
2026-04-22 19:11 50.91348 6.96557 2008 ft 94 kts 131°
2026-04-22 19:11 50.90858 6.97273 1999 ft 95 kts 126°
2026-04-22 19:11 50.90399 6.98020 1987 ft 95 kts 127°
2026-04-22 19:11 50.89956 6.98795 1962 ft 94 kts 121°
2026-04-22 19:12 50.89574 6.99597 1974 ft 90 kts 118°
2026-04-22 19:12 50.89225 7.00397 1973 ft 89 kts 115°
2026-04-22 19:12 50.88902 7.01224 1952 ft 89 kts 117°
2026-04-22 19:12 50.88549 7.02056 1915 ft 93 kts 117°
2026-04-22 19:13 50.88196 7.02939 1849 ft 96 kts 115°
2026-04-22 19:13 50.87846 7.03829 1752 ft 95 kts 118°
2026-04-22 19:13 50.87463 7.04694 1579 ft 95 kts 119°
2026-04-22 19:13 50.87097 7.05551 1438 ft 93 kts 117°
2026-04-22 19:14 50.86731 7.06367 1315 ft 90 kts 120°
2026-04-22 19:14 50.86193 7.06646 1272 ft 91 kts 202°
2026-04-22 19:14 50.85918 7.05825 1243 ft 90 kts 288°
2026-04-22 19:14 50.86304 7.05242 1205 ft 74 kts
2026-04-22 19:15 50.86589 7.05455 1261 ft 70 kts 54°
2026-04-22 19:15 50.86384 7.06398 1365 ft 90 kts 157°
2026-04-22 19:15 50.85799 7.06040 1380 ft 101 kts 241°
2026-04-22 19:15 50.85866 7.05055 1396 ft 89 kts 328°
2026-04-22 19:16 50.86375 7.05085 1356 ft 80 kts 54°
2026-04-22 19:16 50.86252 7.05888 1310 ft 96 kts 141°
2026-04-22 19:16 50.85647 7.05704 1371 ft 103 kts 242°
2026-04-22 19:16 50.85791 7.04752 1346 ft 91 kts 338°
2026-04-22 19:17 50.86352 7.04679 1363 ft 81 kts 36°
2026-04-22 19:17 50.86570 7.05498 1294 ft 88 kts 86°
2026-04-22 19:17 50.86507 7.06458 1328 ft 86 kts 93°
2026-04-22 19:17 50.86409 7.07413 1269 ft 93 kts 99°
2026-04-22 19:18 50.86583 7.08180 1250 ft 91 kts
2026-04-22 19:18 50.87154 7.07609 1205 ft 99 kts 331°
2026-04-22 19:18 50.87718 7.06995 1207 ft 98 kts 332°
2026-04-22 19:18 50.88297 7.06470 1256 ft 91 kts 351°
2026-04-22 19:19 50.88880 7.06606 1266 ft 87 kts 34°
2026-04-22 19:19 50.89210 7.07360 1125 ft 87 kts 71°
2026-04-22 19:19 50.89207 7.08294 928 ft 85 kts 99°
2026-04-22 19:19 50.88978 7.09146 781 ft 85 kts 119°
2026-04-22 19:20 50.88600 7.09842 660 ft 82 kts 129°
2026-04-22 19:20 50.88194 7.10381 527 ft 72 kts 137°
2026-04-22 19:20 50.87849 7.10870 451 ft 64 kts 124°
2026-04-22 19:20 50.87541 7.11412 418 ft 75 kts 129°
2026-04-22 19:21 50.87145 7.11990 300 ft 74 kts 131°
2026-04-22 19:21 50.86789 7.12510 227 ft 62 kts 130°
2026-04-22 19:21 50.86539 7.12881 234 ft 39 kts 139°
2026-04-22 19:21 50.86362 7.13132 240 ft 30 kts 138°
2026-04-22 19:22 50.86231 7.13323 243 ft 12 kts 100°
2026-04-22 19:22 50.86255 7.13324 243 ft 13 kts 319°
2026-04-22 19:22 50.86340 7.13428 244 ft 20 kts 38°
2026-04-22 19:22 50.86441 7.13372 241 ft 12 kts 316°
2026-04-22 19:23 50.86447 7.13363 241 ft 0 kts 321°
2026-04-22 19:24 50.86449 7.13361 241 ft 3 kts 322°
2026-04-22 19:25 50.86487 7.13306 238 ft 10 kts 316°
2026-04-22 19:25 50.86546 7.13220 233 ft 12 kts 319°
2026-04-22 19:25 50.86603 7.13138 234 ft 10 kts 315°
2026-04-22 19:25 50.86658 7.13058 233 ft 13 kts 317°
2026-04-22 19:26 50.86726 7.12960 233 ft 12 kts 316°
2026-04-22 19:26 50.86784 7.12876 232 ft 11 kts 316°
2026-04-22 19:26 50.86843 7.12790 231 ft 12 kts 319°
2026-04-22 19:26 50.86910 7.12691 230 ft 16 kts 316°
2026-04-22 19:27 50.86986 7.12581 232 ft 14 kts 318°
2026-04-22 19:27 50.87059 7.12476 231 ft 15 kts 318°
2026-04-22 19:27 50.87149 7.12349 230 ft 18 kts 319°
2026-04-22 19:27 50.87254 7.12289 225 ft 17 kts 22°
2026-04-22 19:28 50.87245 7.12391 226 ft 7 kts 167°
2026-04-22 19:28 50.87237 7.12392 226 ft 0 kts 176°